Погода в Турунтаеве

Россия / Республика Бурятия     52°12′08″N   107°38′19″E
темп.,
°C
ветер,
м/с
пор.,
м/с
влажн.,
%
обл.,
%
осадки,
мм/ч
давл.,
гПа
погр.,
м
9 марта, вт
вт923:00−12ю019861 0.0 102621
02:00−12в119371 0.0 102621
05:00−12вюв119062 0.0 102227
08:00−11ююв119245 0.0 102238
11:00−3ю25810 0.0 1018433
14:00−1ююз248133 0.0 1017623
17:00−2ююз1286100 0.0 1018375
20:00−7юз2297100 0.0 102332
10 марта, ср
ср1023:00−10зюз229776 0.0 102521
02:00−11з119868 0.1 102821
05:00−11юз119883 0.1 103021
08:00−12ю119687 0.1 103220
11:00−5юз127723 0.0 1030331
14:00−1ююз147135 0.0 1027703
17:00−1ю25760 0.0 1024706
20:00−8юв12870 0.0 102524
11 марта, чт
чт1123:00−9вюв11880 0.0 102521
02:00−10ююв119027 0.0 102521
05:00−11ююв019364 0.0 102521
08:00−10ююв119434 0.0 102623
11:00−2ю248422 0.0 1024403
14:00+1ю258319 0.0 1022580
17:00+1ю26850 0.0 1020561
20:00−5юв22910 0.0 102229
12 марта, пт
пт1223:00−7юв11900 0.0 102231
02:00−7юв11900 0.0 102129
05:00−8ююв12890 0.0 102031
08:00−8ююв12880 0.0 101947
11:000ююз277375 0.0 1017562
14:00+1юз267387 0.0 1017638
17:00−2юз2483100 0.0 1017403
20:00−8ююз119793 0.0 102021
13 марта, сб
сб1323:00−9вюв119666 0.0 101921
02:00−8ююв119163 0.0 101527
05:00−8ю229384 0.0 101336
08:00−8ююз119390 0.0 101231
11:00−2зюз128197 0.0 1008301
14:00+1ююз147598 0.0 1003589
17:00+1зсз0182100 0.0 100070
20:00−4зюз2595100 0.0 1002179